Weather in Batken

Kyrgyzstan     40°03′37″N   70°49′10″E
temp.,
°C
wind,
m/s
gust,
m/s
humid.,
%
clouds,
%
prec.,
mm/h
press.,
hPa
HPBL,
m
12 august, fri
fri1200:00+20wsw12351 0.0 101013
03:00+18sw22390 0.0 101012
06:00+17s11430 0.0 101111
09:00+22n11310 0.0 1012566
12:00+25n32260 0.0 10101258
15:00+28n32220 0.0 10081657
18:00+28nnw32210 0.0 10071807
21:00+23w34280 0.0 100869
13 august, sat
sat1300:00+22ssw22320 0.0 100814
03:00+20sse11350 0.0 100811
06:00+19s11360 0.0 100811
09:00+24n10250 0.0 1009590
12:00+27n32210 0.0 10081307
15:00+29n32190 0.0 10061652
18:00+30nnw22180 0.0 10051589
21:00+24w00270 0.0 100611
14 august, sun
sun1400:00+22ssw11290 0.0 100512
03:00+21ssw11310 0.0 100511
06:00+20s11320 0.0 100511
09:00+26n11230 0.0 1006348
12:00+29n32190 0.0 10051269
15:00+31nnw32170 0.0 10041868
18:00+32nw33150 0.0 10031895
21:00+26sw46220 0.0 100584
15 august, mon
mon1500:00+24ssw22250 0.0 100415
03:00+23s22270 0.0 100313
06:00+22s22280 0.0 100411
09:00+28nw12200 0.0 1005550
12:00+31nnw32160 0.0 10041601
15:00+33nnw43140 0.0 10022631
18:00+32wnw65150 0.0 10032540
21:00+27sw33200 0.0 100430
16 august, tue
tue1600:00+25ssw33230 0.0 100523
03:00+24ssw32240 0.0 100516
06:00+22ssw22261 0.0 100514
09:00+28wsw351917 0.0 1006972
12:00+31nw54165 0.0 10052256
15:00+32nw761515 0.0 10042426
18:00+30wnw881785 0.0 10042289
21:00+26wsw462143 0.0 100698